Flag for U.S.A. Weather past 2 weeks in Fort Collins, Colorado, U.S.A.

Now
68 °F

Sunny.


Feels Like: 68 °F
Forecast: 43 / 77 °F
Wind: 7 mph from South

Location: Fort Collins-Loveland Municipal Airport

Current Time: Oct 24, 2014 at 7:31:27 PM

Latest Report: Oct 24, 2014 at 6:55 PM


Visibility: 10 mi

Pressure: 30.16 "Hg

Humidity: 24%

Dew point: 30 °F

Location of Fort CollinsLocation

Historic Weather in Fort Collins — Graph

°F

Fort Collins temperature yesterday

Maximum temperature yesterday: 75 °F (at 3:35 PM)
Minimum temperature yesterday: 37 °F (at 3:55 AM)
Average temperature yesterday: 55 °F

Past Weeks' High & Low Weather Summary

 TemperatureHumidityPressure
High81 °F (Oct 24, 2:55 PM)100% (Oct 11, 4:35 AM)30.27 "Hg (Oct 11, 4:35 AM)
Low36 °F (Oct 14, 5:15 AM)16% (Oct 24, 2:55 PM)29.70 "Hg (Oct 12, 7:35 AM)
Average54 °F57%30.09 "Hg
* Reported Oct 9 6:15 PM — Oct 24 6:35 PM, Fort Collins, Weather by CustomWeather, © 2014

Note: Actual official high and low records may vary slightly from our data, if they occured in-between our weather recording intervals... More about our weather records

Advertising

Fort Collins weather history for previous 24 hours

 ConditionsComfort  
Time TempWeatherWind HumidityBarometerVisibility
6:35 PM
Oct 24
70 °FSunny.5 mph23%30.15 "Hg10 mi
5:55 PM72 °FSunny.5 mph20%30.13 "Hg10 mi
5:35 PM75 °FSunny.9 mph19%30.12 "Hg10 mi
5:15 PM79 °FSunny.8 mph17%30.12 "Hg10 mi
4:55 PM79 °FSunny.9 mph17%30.11 "Hg10 mi
4:35 PM81 °FSunny.9 mph16%30.11 "Hg10 mi
4:15 PM81 °FSunny.9 mph16%30.11 "Hg10 mi
3:55 PM81 °FSunny.9 mph17%30.11 "Hg10 mi
3:35 PM81 °FSunny.12 mph16%30.11 "Hg10 mi
3:15 PM81 °FSunny.9 mph17%30.11 "Hg10 mi
2:55 PM81 °FSunny.12 mph16%30.11 "Hg10 mi
2:35 PM79 °FSunny.10 mph20%30.11 "Hg5 mi
2:15 PM79 °FSunny.9 mph23%30.12 "Hg10 mi
1:55 PM77 °FSunny.7 mph24%30.13 "Hg10 mi
1:35 PM75 °FSunny.8 mph25%30.14 "Hg10 mi
1:15 PM73 °FSunny.8 mph25%30.15 "Hg10 mi
12:55 PM73 °FSunny.7 mph27%30.15 "Hg10 mi
12:35 PM72 °FSunny.10 mph31%30.16 "Hg10 mi
11:55 AM72 °FSunny.7 mph29%30.17 "Hg10 mi
11:35 AM68 °FSunny.3 mph33%30.18 "Hg10 mi
11:15 AM70 °FSunny.6 mph27%30.18 "Hg10 mi
10:55 AM66 °FSunny.No wind35%30.19 "Hg10 mi
10:35 AM63 °FSunny.No wind34%30.19 "Hg10 mi
10:15 AM59 °FSunny.No wind42%30.19 "Hg10 mi
9:55 AM57 °FSunny.No wind41%30.19 "Hg10 mi
9:35 AM55 °FSunny.3 mph44%30.19 "Hg10 mi
9:15 AM54 °FSunny.6 mph47%30.19 "Hg10 mi
8:55 AM52 °FSunny.7 mph50%30.19 "Hg10 mi
8:35 AM48 °FSunny.5 mph58%30.18 "Hg10 mi
8:15 AM48 °FClear.5 mph58%30.18 "Hg10 mi
7:55 AM46 °FClear.6 mph62%30.17 "Hg10 mi
7:35 AM46 °FClear.5 mph62%30.15 "Hg10 mi
7:15 AM48 °FClear.7 mph58%30.15 "Hg10 mi
6:55 AM46 °FClear.5 mph62%30.15 "Hg10 mi
6:35 AM46 °FClear.3 mph66%30.14 "Hg10 mi
6:15 AM46 °FClear.No wind62%30.14 "Hg10 mi
5:55 AM48 °FClear.No wind58%30.14 "Hg10 mi
5:35 AM52 °FClear.No wind50%30.13 "Hg10 mi
5:15 AM52 °FClear.6 mph50%30.14 "Hg10 mi
4:55 AM50 °FClear.No wind54%30.14 "Hg10 mi
4:35 AM48 °FClear.No wind58%30.13 "Hg10 mi
4:15 AM48 °FClear.3 mph62%30.13 "Hg10 mi
3:55 AM48 °FClear.6 mph66%30.13 "Hg10 mi
3:35 AM48 °FClear.5 mph66%30.13 "Hg10 mi
3:15 AM50 °FClear.No wind62%30.13 "Hg10 mi
2:55 AM48 °FClear.3 mph58%30.13 "Hg10 mi
2:35 AM48 °FClear.No wind62%30.13 "Hg10 mi
2:15 AM48 °FClear.No wind62%30.13 "Hg10 mi
1:55 AM48 °FClear.3 mph62%30.13 "Hg10 mi
1:35 AM48 °FClear.3 mph62%30.12 "Hg10 mi
1:15 AM48 °FClear.6 mph62%30.13 "Hg10 mi
12:55 AM50 °FClear.5 mph58%30.12 "Hg10 mi
12:35 AM48 °FClear.3 mph66%30.12 "Hg10 mi
12:15 AM52 °FClear.5 mph54%30.11 "Hg10 mi
11:55 PM
Oct 23
52 °FClear.No wind54%30.11 "Hg10 mi
11:35 PM54 °FClear.5 mph51%30.12 "Hg5 mi
11:15 PM54 °FClear.6 mph51%30.12 "Hg10 mi
10:55 PM54 °FClear.5 mph51%30.12 "Hg10 mi
10:35 PM54 °FClear.6 mph51%30.12 "Hg10 mi
10:15 PM54 °FClear.7 mph51%30.12 "Hg10 mi
9:55 PM55 °FClear.5 mph47%30.12 "Hg10 mi
9:35 PM61 °FClear.3 mph39%30.11 "Hg10 mi
9:15 PM55 °FClear.No wind47%30.11 "Hg10 mi
8:55 PM57 °FClear.No wind48%30.11 "Hg10 mi
8:35 PM55 °FClear.6 mph47%30.10 "Hg10 mi
8:15 PM57 °FClear.3 mph41%30.11 "Hg10 mi
7:55 PM61 °FClear.No wind36%30.11 "Hg10 mi
7:35 PM59 °FClear.No wind39%30.11 "Hg10 mi
7:15 PM61 °FClear.5 mph34%30.10 "Hg10 mi
Weather by CustomWeather, © 2014

See weather overviewHow to use our weather pages